Location: Catacaguana
(10.4120°N, 66.7591°W)
Time: 05:18:08
(UTC+00:00)

Landsat 4 - Pass Details

Date: 27 May 2022
Orbit: 497 x 516 km, 98.2° (Epoch: 26 June)

Event Time Altitude Azimuth Distance (km) Brightness Sun altitude
Rises 08:37:08 0° 13° (NNE) 2,572 7.8 -20.3°
Reaches altitude 10° 08:39:13 10° 15° (NNE) 1,689 6.9 -19.8°
Maximum altitude 08:42:50 79° 101° (E) 508 3.6 -19.1°
Enters shadow 08:44:29 31° 185° (S) 889 4.6 -18.7°
